Location: NJAA Observatory
(40.6819°N, 74.8979°W)
Time: 19:16:59
(UTC-04:00)

Landsat 5 - Visible Passes

Search period start: 22 May 2017 00:00
Search period end: 01 June 2017 00:00
Orbit: 531 x 656 km, 98.0° (Epoch: 21 May)

Date Brightness Start Highest point End Pass type
(mag) Time Alt. Az. Time Alt. Az. Time Alt. Az.
22 May 4.4 01:25:50 52° N 01:25:50 52° N 01:29:16 10° NNW visible
22 May 6.2 23:58:18 11° ENE 23:58:53 12° ENE 00:00:24 10° NE visible
23 May 4.4 01:34:54 49° NNW 01:34:54 49° NNW 01:38:17 10° NNW visible
24 May 6.0 00:07:22 14° ENE 00:07:48 14° ENE 00:10:11 10° NNE visible
24 May 4.5 01:43:58 44° NW 01:43:58 44° NW 01:47:18 10° NNW visible
25 May 5.8 00:16:26 17° ENE 00:16:43 17° ENE 00:19:41 10° NNE visible
25 May 4.7 01:53:03 38° NW 01:53:03 38° NW 01:56:15 10° NNW visible
26 May 5.5 00:25:31 21° ENE 00:25:40 21° ENE 00:29:03 10° NNE visible
26 May 4.9 02:02:07 32° WNW 02:02:07 32° WNW 02:05:09 10° NNW visible
27 May 5.3 00:34:36 25° ENE 00:34:36 25° ENE 00:38:19 10° NNE visible
27 May 5.1 02:11:12 27° WNW 02:11:12 27° WNW 02:14:01 10° NW visible
28 May 5.0 00:43:40 31° ENE 00:43:40 31° ENE 00:47:33 10° N visible
28 May 5.3 02:20:17 22° WNW 02:20:17 22° WNW 02:22:50 10° NW visible
29 May 4.7 00:52:45 38° ENE 00:52:45 38° ENE 00:56:44 10° N visible
29 May 5.6 02:29:22 18° WNW 02:29:22 18° WNW 02:31:33 10° NW visible
30 May 4.4 01:01:51 46° ENE 01:01:51 46° ENE 01:05:52 10° N visible
30 May 5.8 02:38:27 15° WNW 02:38:27 15° WNW 02:40:09 10° NW visible
31 May 4.1 01:10:56 56° NE 01:10:56 56° NE 01:14:59 10° N visible
31 May 5.9 02:47:32 12° WNW 02:47:32 12° WNW 02:48:34 10° WNW visible
